Waarnemingen

Advertentie
Mijn weer
Görlitz, Duitsland (10499): temperatuur & dauwpunt: 18.10.2018 07:00:00 - 24.10.2018 07:00:00 (CEST)Görlitz, Duitsland (10499): temperatuur 5cm & temperatuur -5cm: 18.10.2018 07:00:00 - 24.10.2018 07:00:00 (CEST)Görlitz, Duitsland (10499): temperatuur -20cm & temperatuur -100cm: 18.10.2018 07:00:00 - 24.10.2018 07:00:00 (CEST)Görlitz, Duitsland (10499): windsnelheid & windstoten: 18.10.2018 07:00:00 - 24.10.2018 07:00:00 (CEST)Görlitz, Duitsland (10499): windrichting: 18.10.2018 07:00:00 - 24.10.2018 07:00:00 (CEST)Görlitz, Duitsland (10499): luchtdruk: 18.10.2018 07:00:00 - 24.10.2018 07:00:00 (CEST)Görlitz, Duitsland (10499): zicht: 18.10.2018 07:00:00 - 24.10.2018 07:00:00 (CEST)Görlitz, Duitsland (10499): Zonneschijnduur: 18.10.2018 07:00:00 - 24.10.2018 07:00:00 (CEST)Görlitz, Duitsland (10499): neerslag: 18.10.2018 07:00:00 - 24.10.2018 07:00:00 (CEST)
Datum & Tijd tt [°C] td [°C] tt 5cm [°C] tt -5cm [°C] tt -20cm [°C] tt -100cm [°C] ff [km/u] ff [kn] fx [km/u] fx [kn] dd ppp [hPa] vv [km] sd [min] rr [mm]
24.10.2018 07:00:00 6,9 5,2 6,4 9,6 10,6 14,0 38 21 56 30 N 1008,7 5 0 0,9
24.10.2018 06:00:00 9,3 5,9 8,8 9,7 10,6 14,0 24 13 49 27 WNW 1007,1 25 0 0,1
24.10.2018 05:00:00 9,3 6,7 8,3 9,8 10,6 14,1 27 15 61 33 WNW 1007,0 12 0 0,0
24.10.2018 04:00:00 9,9 7,1 8,9 9,8 10,6 14,1 30 16 64 35 WNW 1006,3 10 0 0,0
24.10.2018 03:00:00 10,2 7,2 8,8 9,9 10,5 14,1 32 17 58 31 WNW 1006,6 15 0 1,4
24.10.2018 02:00:00 9,9 9,1 9,5 9,8 10,5 14,1 29 16 61 33 WNW 1006,8 4,6 0 5,4
24.10.2018 01:00:00 9,7 9,1 9,5 9,7 10,5 14,1 30 16 64 35 W 1007,1 2,6 0 1,6
24.10.2018 00:00:00 9,8 8,8 9,3 9,7 10,4 14,1 36 20 74 40 W 1007,5 4,3 0 0,6
23.10.2018 23:00:00 9,7 8,8 9,1 9,6 10,4 14,2 33 18 64 35 W 1008,0 4,3 0 0,9
23.10.2018 22:00:00 9,3 8,5 8,9 9,4 10,4 14,2 38 21 68 37 W 1008,5 2,6 0 0,5
23.10.2018 21:00:00 9,2 8,1 8,5 9,4 10,4 14,2 34 18 60 33 W 1008,7 4,3 0 0,2
23.10.2018 20:00:00 8,8 7,6 8,1 9,3 10,4 14,2 33 18 63 34 W 1009,5 4,3 0 0,2
23.10.2018 19:00:00 8,4 7,0 7,7 9,3 10,4 14,2 35 19 64 35 W 1010,1 4,3 0 0,4
23.10.2018 18:00:00 8,1 6,4 7,4 9,3 10,4 14,2 35 19 59 32 W 1010,5 4,3 0 0,0
23.10.2018 17:00:00 8,3 5,4 7,5 9,3 10,4 14,2 34 18 60 32 WZW 1011,1 20 0 0,0
23.10.2018 16:00:00 7,9 5,2 7,2 9,2 10,4 14,2 34 18 56 30 WZW 1012,4 21 0 0,0
23.10.2018 15:00:00 7,4 5,4 7,1 9,2 10,4 14,3 33 18 52 28 WZW 1013,5 20 0 1,2
23.10.2018 14:00:00 7,2 4,9 6,5 9,1 10,4 14,3 29 16 51 28 WZW 1014,8 8 0 0,9
23.10.2018 13:00:00 8,2 3,2 7,8 9,1 10,4 14,3 33 18 60 33 WZW 1016,3 45 0 0,0
23.10.2018 12:00:00 8,1 3,0 7,4 9,0 10,4 14,3 31 17 53 28 WZW 1017,6 55 0 0,0
23.10.2018 11:00:00 7,9 3,3 7,2 8,9 10,4 14,3 30 16 49 26 WZW 1018,7 35 0 0,0
23.10.2018 10:00:00 7,6 3,4 6,6 8,7 10,5 14,3 22 12 42 23 WZW 1019,7 40 10 0,0
23.10.2018 09:00:00 6,5 3,3 5,3 8,6 10,6 14,3 19 11 31 17 ZW 1021,3 26 0 0,0
23.10.2018 08:00:00 5,0 3,6 3,8 8,7 10,7 14,3 18 10 29 16 ZW 1022,3 20 0 0,0
23.10.2018 07:00:00 5,0 3,6 3,9 8,8 10,8 14,3 19 11 26 14 ZW 1023,0 8 0 0,0
23.10.2018 06:00:00 5,4 4,0 4,3 8,8 11,0 14,4 16 9 23 12 ZW 1024,7 10 0 0,0
23.10.2018 05:00:00 4,8 3,8 3,5 8,9 11,1 14,4 13 7 19 10 ZW 1025,8 12 0 0,0
23.10.2018 04:00:00 3,9 3,4 2,8 9,2 11,3 14,4 10 5 14 8 ZW 1027,0 14 0 0,0
23.10.2018 03:00:00 3,7 3,4 1,9 9,6 11,4 14,4 8 4 13 7 ZW 1027,8 15 0 0,0
23.10.2018 02:00:00 4,9 4,5 2,5 9,9 11,5 14,4 7 4 11 6 WZW 1028,4 14 0 0,0
23.10.2018 01:00:00 6,0 5,5 4,3 10,2 11,6 14,4 6 3 13 7 W 1028,7 12 0 0,0
23.10.2018 00:00:00 7,0 6,5 6,7 10,4 11,7 14,5 8 4 21 11 WNW 1028,9 8 0 0,0
22.10.2018 23:00:00 7,2 6,8 6,9 10,6 11,8 14,5 11 6 23 13 WNW 1029,4 8 0 0,0
22.10.2018 22:00:00 7,0 6,5 6,6 10,8 11,8 14,5 10 6 18 10 WNW 1029,2 8 0 0,0
22.10.2018 21:00:00 7,3 6,6 6,8 11,1 11,9 14,6 9 5 22 12 WNW 1029,3 8 0 0,0
22.10.2018 20:00:00 7,7 7,3 7,6 11,2 11,9 14,6 9 5 34 19 NNW 1029,0 6 0 0,2
22.10.2018 19:00:00 7,9 7,1 7,7 11,4 11,8 14,5 21 11 37 20 NNW 1028,4 1,5 0 0,4
22.10.2018 18:00:00 8,7 8,2 8,7 11,6 11,7 14,5 11 6 22 12 NW 1027,3 4,0 0 0,9
22.10.2018 17:00:00 9,1 8,3 9,1 11,7 11,5 14,5 10 5 29 16 WNW 1026,9 4,0 0 0,0
22.10.2018 16:00:00 11,5 6,3 11,7 11,7 11,4 14,5 15 8 26 14 WNW 1026,2 20 0 0,0
22.10.2018 15:00:00 12,6 5,6 13,9 11,4 11,2 14,6 14 7 24 13 W 1025,8 45 4 0,0
22.10.2018 14:00:00 12,2 5,1 13,4 11,0 11,0 14,6 11 6 22 12 W 1026,1 45 0 0,0
22.10.2018 13:00:00 12,1 4,7 13,3 10,5 10,9 14,6 12 7 18 10 W 1026,1 45 0 0,0
22.10.2018 12:00:00 11,7 4,6 13,8 9,9 10,8 14,6 11 6 20 11 ZW 1026,5 40 21 0,0
22.10.2018 11:00:00 10,4 4,4 15,1 9,0 10,8 14,6 9 5 17 9 ZZW 1026,9 23 60 0,0
22.10.2018 10:00:00 8,7 4,2 11,5 8,5 10,9 14,6 11 6 15 8 ZW 1027,2 25 60 0,0
22.10.2018 09:00:00 5,5 2,8 7,0 8,5 11,2 14,7 9 5 13 7 ZZW 1027,7 25 59 0,0
22.10.2018 08:00:00 3,6 1,9 1,2 8,7 11,4 14,7 11 6 14 8 ZW 1027,7 23 0 0,0
22.10.2018 07:00:00 3,5 1,8 0,4 8,9 11,5 14,7 10 6 13 7 ZW 1027,3 15 0 0,0
22.10.2018 06:00:00 3,5 2,2 1,2 9,1 11,7 14,7 5 3 7 4 WZW 1027,3 18 0 0,0
22.10.2018 05:00:00 3,5 1,8 0,4 9,3 11,8 14,6 7 4 9 5 ZW 1027,5 20 0 0,0
22.10.2018 04:00:00 4,1 3,1 0,3 9,5 12,0 14,6 3 1 5 3 ZW 1027,8 20 0 0,0
22.10.2018 03:00:00 3,7 3,1 0,2 9,8 12,2 14,7 0 0 8 4 N 1028,4 27 0 0,0
22.10.2018 02:00:00 3,4 3,4 0,9 10,1 12,4 14,7 6 3 8 5 Z 1028,7 23 0 0,0
22.10.2018 01:00:00 3,2 3,2 1,2 10,5 12,6 14,7 4 2 5 3 Z 1028,8 18 0 0,0
22.10.2018 00:00:00 3,9 3,7 0,3 10,9 12,8 14,7 3 2 5 3 ZZO 1029,0 17 0 0,0
21.10.2018 23:00:00 3,0 2,7 1,1 11,4 13,0 14,7 4 2 8 4 Z 1029,4 18 0 0,0
21.10.2018 22:00:00 4,0 3,5 2,0 11,8 13,2 14,7 5 3 6 4 ZZO 1029,4 17 0 0,0
21.10.2018 21:00:00 6,1 4,7 1,9 12,4 13,3 14,7 4 2 10 5 ZO 1029,2 20 0 0,0
21.10.2018 20:00:00 6,9 4,6 3,1 13,0 13,3 14,7 6 3 8 4 ZZO 1029,1 27 0 0,0
21.10.2018 19:00:00 8,1 4,7 5,4 13,5 13,3 14,8 4 2 7 4 ONO 1028,9 40 0 0,0
21.10.2018 18:00:00 11,1 4,7 8,6 14,0 13,1 14,8 4 2 6 4 NNW 1028,5 50 38 0,0
21.10.2018 17:00:00 12,2 4,8 11,9 14,1 12,9 14,8 4 2 10 6 NNW 1028,4 45 46 0,0
21.10.2018 16:00:00 12,3 4,6 13,5 13,8 12,7 14,8 7 4 11 6 ONO 1028,5 40 51 0,0
21.10.2018 15:00:00 12,7 5,1 14,4 13,4 12,5 14,8 3 2 16 8 ZZO 1028,8 28 45 0,0
21.10.2018 14:00:00 12,4 5,8 14,8 12,9 12,3 14,8 3 2 16 8 OZO 1029,1 23 38 0,0
21.10.2018 13:00:00 11,4 5,7 15,5 12,1 12,1 14,8 3 2 12 6 NNW 1029,5 18 57 0,0
21.10.2018 12:00:00 9,7 5,7 12,8 11,5 12,0 14,8 3 2 6 3 WZW 1030,3 16 17 0,0
21.10.2018 11:00:00 8,9 5,2 11,0 11,0 12,1 14,8 3 2 9 5 N 1030,2 16 28 0,0
21.10.2018 10:00:00 8,4 5,4 10,4 10,7 12,1 14,8 4 2 10 5 NNW 1029,9 16 51 0,0
21.10.2018 09:00:00 7,6 5,5 8,2 10,6 12,2 14,8 5 3 9 5 NNO 1029,6 16 4 0,0
21.10.2018 08:00:00 6,8 5,1 6,8 10,5 12,3 14,9 6 3 9 5 WZW 1028,8 14 0 0,0
21.10.2018 07:00:00 6,3 4,5 6,0 10,6 12,4 14,9 5 3 10 5 W 1028,7 14 0 0,0
21.10.2018 06:00:00 6,3 4,4 5,7 10,8 12,5 14,9 6 3 9 5 W 1028,7 18 0 0,0
21.10.2018 05:00:00 6,9 4,2 4,8 11,1 12,6 14,9 8 4 11 6 W 1028,3 25 0 0,0
21.10.2018 04:00:00 7,2 4,6 6,0 11,3 12,7 14,9 7 4 10 5 W 1028,4 25 0 0,0
21.10.2018 03:00:00 7,0 5,3 6,5 11,4 12,7 14,9 6 3 9 5 ZW 1028,5 27 0 0,0
21.10.2018 02:00:00 7,7 5,1 6,9 11,5 12,8 14,9 6 4 16 9 W 1028,7 25 0 0,0
21.10.2018 01:00:00 7,8 4,8 7,7 11,6 12,9 14,9 6 3 9 5 WZW 1028,9 40 0 0,0
21.10.2018 00:00:00 7,6 5,2 7,2 11,6 13,0 14,9 5 3 8 4 WZW 1029,0 28 0 0,0
20.10.2018 23:00:00 7,4 4,7 6,9 11,7 13,1 14,9 4 2 8 4 ZW 1029,4 23 0 0,0
20.10.2018 22:00:00 7,1 4,1 6,5 11,9 13,2 14,9 6 4 8 4 ZW 1029,2 27 0 0,0
20.10.2018 21:00:00 7,2 3,9 6,6 12,1 13,3 14,9 4 2 7 4 ZW 1029,3 22 0 0,0
20.10.2018 20:00:00 7,4 4,0 6,8 12,3 13,4 15,0 3 1 6 3 WZW 1029,0 25 0 0,0
20.10.2018 19:00:00 7,0 3,4 6,3 12,6 13,4 15,0 4 2 10 5 WNW 1028,8 35 0 0,0
20.10.2018 18:00:00 8,7 3,0 6,9 12,9 13,4 15,0 5 3 18 10 NNW 1028,6 40 6 0,0
20.10.2018 17:00:00 9,7 3,0 9,5 13,1 13,4 15,0 14 8 22 12 N 1028,5 45 0 0,0
20.10.2018 16:00:00 10,3 2,5 10,8 13,2 13,3 15,0 10 5 26 14 NW 1028,2 45 22 0,0
20.10.2018 15:00:00 9,8 2,3 10,1 13,1 13,3 15,0 13 7 27 15 NW 1028,6 45 10 0,0
20.10.2018 14:00:00 9,8 2,9 10,8 12,9 13,2 15,0 13 7 28 15 NNW 1028,8 45 5 0,0
20.10.2018 13:00:00 10,1 4,6 12,8 12,5 13,2 15,0 11 6 19 10 NNW 1028,7 40 47 0,0
20.10.2018 12:00:00 9,2 3,9 10,3 12,3 13,2 15,0 9 5 18 10 NNW 1029,1 35 9 0,0
20.10.2018 11:00:00 8,5 5,2 8,9 12,1 13,3 15,0 8 4 16 9 NW 1029,2 30 0 0,0
20.10.2018 10:00:00 8,3 5,4 8,9 12,0 13,4 15,0 8 5 15 8 NW 1028,7 20 41 0,0
20.10.2018 09:00:00 7,6 6,3 8,6 12,1 13,5 15,0 6 4 12 7 WNW 1028,0 17 5 0,0
20.10.2018 08:00:00 7,5 5,8 6,2 12,3 13,6 15,0 9 5 13 7 NW 1027,5 13 0 0,0
20.10.2018 07:00:00 8,4 7,7 7,6 12,5 13,6 15,0 4 2 11 6 WNW 1027,0 7 0 0,0
20.10.2018 06:00:00 9,0 8,5 8,5 12,7 13,7 15,0 6 3 12 6 WNW 1026,6 6 0 0,0
20.10.2018 05:00:00 9,4 8,9 8,8 12,8 13,8 15,0 5 3 7 4 W 1026,2 6 0 0,0
20.10.2018 04:00:00 9,7 9,1 9,4 13,0 13,8 15,0 2 1 8 4 WNW 1025,8 8 0 0,0
20.10.2018 03:00:00 9,8 8,8 9,7 13,0 13,8 15,0 4 2 8 5 W 1025,9 10 0 0,0
20.10.2018 02:00:00 10,2 9,4 10,2 13,1 13,9 15,0 5 3 7 4 W 1026,0 13 0 0,0
20.10.2018 01:00:00 10,3 9,8 10,3 13,2 13,9 15,1 0 0 4 2 N 1025,9 12 0 0,0
20.10.2018 00:00:00 10,3 9,9 10,3 13,2 14,0 15,1 3 2 6 4 NNW 1025,9 6 0 0,0
19.10.2018 23:00:00 10,4 10,0 10,5 13,3 14,0 15,1 4 2 5 3 WNW 1025,9 3,5 0 0,0
19.10.2018 22:00:00 10,4 9,9 10,4 13,3 14,1 15,1 0 0 4 2 N 1025,9 4,0 0 0,0
19.10.2018 21:00:00 10,5 10,2 10,5 13,4 14,1 15,1 0 0 6 3 N 1025,6 6 0 0,0
19.10.2018 20:00:00 10,4 9,9 10,4 13,5 14,2 15,1 4 2 10 6 NW 1025,1 4,2 0 0,0
19.10.2018 19:00:00 10,4 10,2 10,6 13,6 14,2 15,1 11 6 14 7 N 1024,9 0,7 0 0,0
19.10.2018 18:00:00 10,5 10,4 10,7 13,7 14,2 15,1 5 3 10 5 NW 1024,7 0,4 0 0,0
19.10.2018 17:00:00 10,6 10,6 10,9 13,8 14,2 15,1 4 2 10 5 NW 1024,6 0,7 0 0,0
19.10.2018 16:00:00 10,6 10,5 11,0 13,8 14,2 15,1 7 4 13 7 NW 1024,8 1,4 0 0,0
19.10.2018 15:00:00 10,8 10,5 11,4 13,8 14,2 15,1 6 4 14 8 NNW 1024,8 2,8 0 0,2
19.10.2018 14:00:00 11,0 10,6 11,6 13,8 14,2 15,1 7 4 13 7 NW 1025,1 2,8 0 0,2
19.10.2018 13:00:00 10,8 10,6 11,4 13,7 14,2 15,1 6 3 14 8 NW 1025,2 2,3 0 0,1
19.10.2018 12:00:00 10,8 10,6 11,3 13,7 14,3 15,1 5 3 14 8 NNW 1025,3 2,3 0 0,0
19.10.2018 11:00:00 10,9 10,9 11,3 13,7 14,3 15,1 8 4 14 8 NNW 1024,9 1,3 0 0,1
19.10.2018 10:00:00 10,7 10,7 11,1 13,8 14,3 15,1 8 5 16 9 NNW 1024,6 0,8 0 0,0
19.10.2018 09:00:00 11,3 11,3 11,6 13,8 14,4 15,1 10 5 13 7 N 1024,0 0,7 0 0,1
19.10.2018 08:00:00 11,6 11,6 11,8 13,8 14,4 15,1 5 3 8 4 NW 1023,5 0,7 0 0,1
19.10.2018 07:00:00 11,6 11,5 11,8 13,8 14,4 15,1 3 2 6 3 W 1023,1 0,7 0 0,1
19.10.2018 06:00:00 11,6 11,5 11,7 13,8 14,5 15,1 3 2 7 4 WNW 1023,1 1,2 0 0,0
19.10.2018 05:00:00 11,4 11,1 11,5 13,9 14,5 15,1 4 2 7 4 W 1023,0 3,0 0 0,0
19.10.2018 04:00:00 11,3 11,0 11,4 13,9 14,6 15,1 3 1 6 3 W 1023,1 1,5 0 0,0
19.10.2018 03:00:00 11,2 11,1 11,4 13,9 14,6 15,1 5 3 7 4 WZW 1023,1 0,7 0 0,0
19.10.2018 02:00:00 11,0 11,0 11,2 14,0 14,7 15,1 5 3 8 5 W 1023,4 0,3 0 0,0
19.10.2018 01:00:00 10,9 10,9 11,1 14,0 14,8 15,2 6 3 16 9 W 1023,6 0,5 0 0,0
19.10.2018 00:00:00 10,7 10,5 10,9 14,0 14,9 15,2 10 5 22 12 WNW 1023,4 1,2 0 0,0
18.10.2018 23:00:00 10,9 10,1 10,8 14,2 15,0 15,2 10 6 21 11 WNW 1023,0 3,5 0 0,0
18.10.2018 22:00:00 10,9 9,4 9,8 14,5 15,1 15,2 10 5 17 9 W 1022,6 4,0 0 0,0
18.10.2018 21:00:00 11,7 9,0 10,4 14,8 15,2 15,2 10 5 16 9 W 1022,1 5 0 0,0
18.10.2018 20:00:00 11,8 9,1 9,4 15,3 15,2 15,2 7 4 9 5 WNW 1021,4 6 0 0,0
18.10.2018 19:00:00 12,9 9,4 10,4 15,7 15,1 15,2 6 3 9 5 W 1021,0 7 0 0,0
18.10.2018 18:00:00 15,0 9,8 12,8 16,1 15,0 15,2 6 3 14 8 WNW 1020,3 10 3 0,0
18.10.2018 17:00:00 16,5 10,1 16,2 16,2 14,8 15,2 8 5 19 10 NW 1019,9 9 60 0,0
18.10.2018 16:00:00 17,5 10,4 18,2 16,1 14,5 15,2 9 5 25 14 NNW 1019,6 9 60 0,0
18.10.2018 15:00:00 17,8 9,6 18,9 15,7 14,3 15,2 14 7 22 12 NNW 1019,3 8 60 0,0
18.10.2018 14:00:00 18,4 9,5 20,9 15,0 14,0 15,2 8 4 16 9 WNW 1019,1 9 60 0,0
18.10.2018 13:00:00 17,2 9,3 19,9 14,2 13,9 15,2 8 5 16 9 NW 1019,5 9 60 0,0
18.10.2018 12:00:00 16,3 8,8 22,1 13,4 13,8 15,2 4 2 11 6 W 1020,0 8 60 0,0
18.10.2018 11:00:00 15,0 9,2 18,9 12,8 13,9 15,2 6 4 10 6 W 1020,3 8 60 0,0
18.10.2018 10:00:00 13,1 9,2 16,2 12,4 13,9 15,2 7 4 10 5 WZW 1020,6 8 60 0,0
18.10.2018 09:00:00 9,6 7,5 10,2 12,3 14,1 15,2 8 4 13 7 WZW 1020,6 9 32 0,0
18.10.2018 08:00:00 7,8 7,0 6,1 12,5 14,2 15,2 4 2 13 7 ZZW 1020,4 9 0 0,0
18.10.2018 07:00:00 8,7 7,2 6,5 12,7 14,4 15,2 9 5 11 6 WZW 1019,8 8 0 0,0

tt = temperatuur
td = dauwpunt
tt 5cm = temperatuur 5cm
tt -5cm = temperatuur -5cm
tt -20cm = temperatuur -20cm
tt -100cm = temperatuur -100cm
ff = windsnelheid
fx = windstoten
dd = windrichting
ppp = luchtdruk
vv = zicht
sd = Zonneschijnduur
rr = neerslag

Weerstations in de omgeving